Location: Recife
(8.0585°S, 34.8848°W)
Time: 12:41:41
(UTC-03:00)

Vanguard 2 - Pass Details

Date: 18 April 2026
Orbit: 554 x 2894 km, 32.9° (Epoch: 7 May)

Event Time Altitude Azimuth Distance (km) Brightness Sun altitude
Rises 04:24:29 0° 233° (SW) 6,451 - -14.8°
Exits shadow 04:28:15 - 231° (SW) 5,467 11.3 -13.9°
Reaches altitude 10° 04:29:17 10° 230° (SW) 5,191 11.2 -13.6°
Maximum altitude 04:43:22 64° 151° (SSE) 1,935 9.6 -10.2°
Drops below altitude 10° 04:51:48 10° 71° (ENE) 3,245 12.4 -8.1°
Sets 04:54:07 0° 67° (ENE) 3,963 13.1 -7.6°
